Regional Weather Roundup
Issued by NWS Green Bay, WI

Home | Current Version | Previous Version | Graphics & Text | Print | Product List | Glossary Off
Versions: 1 2 3 4 5 6 7 8 9 10 11 12 13 14 15 16 17 18 19 20 21 22 23 24 25 26 27 28 29 30 31 32 33 34 35 36 37 38 39 40 41 42 43 44 45 46 47 48 49 50

000
ASUS43 KGRB 140459
RWRGRB

NORTH-CENTRAL AND NORTHEAST WISCONSIN REGIONAL WEATHER ROUNDUP
NATIONAL WEATHER SERVICE GREEN BAY WI
1200 AM CDT MON JUL 14 2014

WIZ005-009-010>012-018-019-140600-
NORTH CENTRAL WISCONSIN

CITY           SKY/WX    TMP DP  RH WIND       PRES   REMARKS
IRONWOOD       CLOUDY    57  46  67 W3        29.84S
MANITOWISH WTR NOT AVBL
ARBOR VITAE    NOT AVBL
EAGLE RIVER    NOT AVBL
LAND O LAKES   NOT AVBL
RHINELANDER    CLOUDY    57  51  80 W5        29.87F
PHILLIPS       NOT AVBL
ANTIGO         NOT AVBL
TOMAHAWK       NOT AVBL
MERRILL        NOT AVBL
$$

WIZ013-073-140600-
NORTHEAST WISCONSIN

CITY           SKY/WX    TMP DP  RH WIND       PRES   REMARKS
IRON MOUNTAIN  CLOUDY    58  51  78 CALM      29.84S
MARINETTE      CLOUDY    63  46  55 W3        29.84S
$$

WIZ017-030-035>037-045-140600-
CENTRAL WISCONSIN

CITY           SKY/WX    TMP DP  RH WIND       PRES   REMARKS
MEDFORD        NOT AVBL
WAUSAU         CLOUDY    62  53  72 CALM      29.87S
MOSINEE        NOT AVBL
MARSHFIELD     MOCLDY    60  52  74 W6        29.89F
WISC RAPIDS    CLEAR     57  53  86 CALM      29.90S
STEVENS POINT  NOT AVBL
WAUPACA        NOT AVBL
SHAWANO        NOT AVBL
CLINTONVILLE   NOT AVBL
$$

WIZ038-039-048-051-140600-
FOX VALLEY

CITY           SKY/WX    TMP DP  RH WIND       PRES   REMARKS
NWS GREEN BAY  CLEAR     62  51  67 SW3       29.87S
APPLETON       NOT AVBL
OSHKOSH        CLEAR     61  52  72 S3        29.88F
FOND DU LAC    CLEAR     57  53  86 SW5       29.89F
$$

WIZ022-050-052-140600-
EAST CENTRAL WISCONSIN

CITY           SKY/WX    TMP DP  RH WIND       PRES   REMARKS
STURGEON BAY   MOCLDY    57  50  77 SW5       29.86F
MANITOWOC      NOT AVBL
SHEBOYGAN      CLEAR     56  53  90 SW3       29.89S
$$

LMZ563-521-522-541>543-140600-
LAKESHORE

STATION/POSITION TIME  TEMP    WIND        PRES    VSBY  WAVE
                       AIR SEA DIR/SP/G                  HT/PER
                 (UTC) (F)     (DEG/KT/KT) (MB)    (MI)  (FT/S)
SHEBOYGAN LKSHOR 0400   70     280/  4/  5 1011.9F
KEWAUNEE LKSHORE 0400   62     290/  3/  4 1012.1F
NORTHPORT PIER   0400   61     180/  5/  7 1010.8S
N MID LAKE BUOY  0400   61 57  210/ 10/ 12 1010.2S         1
MENOMINEE LKSHOR 0400   66     230/  5/  6 1011.3F
$$



USA.gov is the U.S. government's official web portal to all federal, state and local government web resources and services.